Regional Weather Roundup
Issued by NWS

Home | Current Version | Previous Version | Text Only | Print | Product List | Glossary Off
Versions: 1 2 3 4 5 6 7 8 9 10 11 12 13 14 15 16 17 18 19 20 21 22 23 24 25 26 27 28 29 30 31 32 33 34 35 36 37 38 39 40 41 42 43 44 45 46 47 48 49 50

000
ASUS43 KMKX 200400
RWRWI

WISCONSIN REGIONAL WEATHER ROUNDUP
NATIONAL WEATHER SERVICE MILWAUKEE/SULLIVAN WI
1100 PM CDT TUE AUG 19 2014

NOTE: "FAIR" INDICATES FEW OR NO CLOUDS BELOW 12,000 FEET WITH NO
SIGNIFICANT WEATHER AND/OR OBSTRUCTIONS TO VISIBILITY.

WIZ001-002-006>008-014>016-023>028-200500-
NORTHWEST WISCONSIN

CITY           SKY/WX    TMP DP  RH WIND       PRES   REMARKS
SUPERIOR ARPT  CLOUDY    62  61  96 CALM      29.80S
ASHLAND        CLOUDY    59  58  96 NE5       29.82S
HAYWARD        FOG       60  60 100 CALM      29.81S VSB 1/4
SIREN          MOCLDY    65  64  97 CALM      29.81R
RICE LAKE      CLOUDY    65  63  92 CALM      29.82S
LADYSMITH      PTCLDY    63  62  94 CALM      29.81S
EAU CLAIRE     NOT AVBL
MENOMONIE      CLOUDY    68  64  87 CALM      29.80R
NEW RICHMOND   CLOUDY    65  64  97 CALM      29.80S
OSCEOLA        CLOUDY    66  66 100 CALM      29.82R
$$

WIZ003>005-009-010-017-018-200500-
NORTH CENTRAL WISCONSIN

CITY           SKY/WX    TMP DP  RH WIND       PRES   REMARKS
WOODRUFF       CLOUDY    62  59  89 N5        29.79S
RHINELANDER    CLOUDY    61  59  93 W3        29.79S
EAGLE RIVER    CLOUDY    59  58  96 W3        29.78S
LAND O LAKES   CLOUDY    59  58  96 NW6       29.79S
PHILLIPS       CLOUDY    60  59  96 N3        29.79F
TOMAHAWK       PTCLDY    57  56  96 CALM      29.79S
MEDFORD        FOG       61  61  99 CALM      29.79S VSB 1/4
MERRILL        CLEAR     62  61  99 CALM      29.78S
$$

WIZ029-030-035-036-043>047-200500-
CENTRAL WISCONSIN

CITY           SKY/WX    TMP DP  RH WIND       PRES   REMARKS
WAUSAU         PTCLDY    63  62  97 CALM      29.76S
MOSINEE        PTCLDY    63  63 100 NW5       29.78S
MARSHFIELD     CLEAR     63  60  90 NW3       29.78S
STEVENS POINT  PTCLDY    64  62  93 W3        29.78S
WAUPACA        PTCLDY    67  64  90 CALM      29.76S
WAUTOMA        NOT AVBL
WISC RAPIDS    CLEAR     64  62  93 W3        29.78S
CAMP DOUGLAS   FOG       61  61 100 SW1       29.78S VSB 1
$$

WIZ011>013-019>022-031-037>040-048>050-200500-
NORTHEAST WISCONSIN

CITY           SKY/WX    TMP DP  RH WIND       PRES   REMARKS
ANTIGO         CLEAR     60  59  98 NW6       29.78R
STURGEON BAY   CLOUDY    66  63  88 NW7       29.73S
GREEN BAY      CLEAR     64  63  96 W6        29.74R
MANITOWOC      NOT AVBL
APPLETON       MOCLDY    64  63  94 W8        29.76R
CLINTONVILLE   PTCLDY    64  63  94 W5        29.74S
OSHKOSH        CLOUDY    68  63  84 W3        29.76R
$$

WIZ032>034-041-042-053>061-200500-
SOUTHWEST WISCONSIN

CITY           SKY/WX    TMP DP  RH WIND       PRES   REMARKS
LA CROSSE      CLEAR     69  65  86 CALM      29.77S
SPARTA         PTCLDY    64  62  95 CALM      29.79S
VIROQUA        FAIR      66  65  99 W5        29.80F
BOSCOBEL       CLEAR     66  63  90 CALM      29.78F FOG
PRAIRIE DU CHI CLEAR     67  63  87 CALM      29.79S
PLATTEVILLE    FAIR      69  64  84 W3        29.81S
$$

WIZ056-057-062-063-064-067-068-200500-
SOUTH CENTRAL WISCONSIN

CITY           SKY/WX    TMP DP  RH WIND       PRES   REMARKS
BARABOO/DELLS  PTCLDY    65  61  88 CALM      29.78S
LONE ROCK      NOT AVBL
WATERTOWN      CLEAR     64  64  98 CALM      29.77S
MADISON        PTCLDY    66  63  90 CALM      29.78R
MIDDLETON      FAIR      66  66 100 CALM      29.79S
MONROE         CLEAR     70  63  78 W7        29.80R
JANESVILLE     PTCLDY    68  64  88 W3        29.78R
$$

WIZ051-052-058>065-066-070>072-200500-
SOUTHEAST WISCONSIN

CITY           SKY/WX    TMP DP  RH WIND       PRES   REMARKS
MILWAUKEE      PTCLDY    69  65  86 CALM      29.76S
WAUKESHA       CLEAR     64  61  88 W5        29.78S
MILWAUKEE/TIMM CLEAR     68  61  77 CALM      29.77S
RACINE         CLEAR     69  66  90 W5        29.78S
BURLINGTON     CLEAR     63  62  97 CALM      29.77S
KENOSHA        CLEAR     65  65 100 W3        29.77S
FOND DU LAC    PTCLDY    65  61  87 CALM      29.77R
SHEBOYGAN      CLEAR     64  61  90 SW3       29.75R
WEST BEND      CLEAR     64  61  88 CALM      29.77R
JUNEAU         MOCLDY    65  38  37 CALM      29.78S
$$

LSZ147-162-200500-
LAKE SUPERIOR

STATION/POSITION TIME  TEMP    WIND        PRES    WAVE
                       AIR SEA DIR/SP/G            HT/PER
                 (UTC) (F)     (DEG/KT/KT) (MB)    (FT/S)
W MID LAKE BUOY  0250   56 56   20/ 10/ 12 1008.7R   2/ 4
DEVILS ISLAND    0300   60      80/  7/  8 1009.5R
PORT WING        0300   61      40/ 10/ 12 1009.5R
SAXON HARBOR     0300   60      30/  4/  6 1009.5R
$$

LMZ867-665-643>646-200500-
LAKE MICHIGAN

STATION/POSITION TIME  TEMP    WIND        PRES    WAVE
                       AIR SEA DIR/SP/G            HT/PER
                 (UTC) (F)     (DEG/KT/KT) (MB)    (FT/S)
N MID LAKE BUOY  0250   63 62  200/  4/  8 1005.1R   1/ 5
NORTHPORT PIER   0300   66     300/  7/ 11 1006.1R
SISTER BAY       0226   65     280/  5/  6   N/A
ALGOMA LAKESHORE 0222             CALM       N/A
KEWAUNEE LAKESHO 0300   66     270/  1/  3 1005.6F
SHEBOYGAN LAKESH 0300   69 65  220/  6/  6 1007.1R
ATWATER BUOY     0300   68        CALM     1008.8R
MILWAUKEE LAKESH 0300   69      40/  2/  3   N/A
S MID LAKE BUOY  0250   68 67   70/  2/  4 1007.2R   1/ 5
KENOSHA   LAKESH 0300   73     230/  2/  2 1007.5R
$$

TC  - TEMPERATURE IN CELSIUS
VSB - VISIBILITY IN STATUTE MILES
WCI - WIND CHILL INDEX
HX  - HEAT INDEX



USA.gov is the U.S. government's official web portal to all federal, state and local government web resources and services.